Regional Weather Roundup
Issued by NWS

Home | Current Version | Previous Version | Graphics & Text | Print | Product List | Glossary Off
Versions: 1 2 3 4 5 6 7 8 9 10 11 12 13 14 15 16 17 18 19 20 21 22 23 24 25 26 27 28 29 30 31 32 33 34 35 36 37 38 39 40 41 42 43 44 45 46 47 48 49 50

020
ASUS43 KDMX 212306
RWRIA

WEATHER ROUNDUP FOR IOWA
NATIONAL WEATHER SERVICE DES MOINES IA
500 PM CST TUE FEB 21 2017

NOTE: "FAIR" INDICATES FEW OR NO CLOUDS BELOW 12,000 FEET WITH NO
SIGNIFICANT WEATHER AND/OR OBSTRUCTIONS TO VISIBILITY.

* - THESE STATIONS ARE NOT NWS STATIONS...THUS NOT UNDER NWS
QUALITY CONTROL.  THEY ALSO DO NOT REPORT WEATHER SUCH
AS PRECIPITATION OR FOG.

IAZ001>003-012>014-020>022-031>034-043>046-220000-
   NORTHWEST IOWA

CITY           SKY/WX    TMP DP  RH WIND       PRES   REMARKS
CARROLL *      CLEAR     63  45  51 S14G20    29.81F
CHEROKEE *     CLEAR     66  38  35 S17       29.74F
DENISON *      SUNNY     64  43  45 S15G22    29.78F
LE MARS *      SUNNY     68  39  34 S14       29.73F
ORANGE CITY *  SUNNY     64  45  48 SW14      29.72F
SHELDON *      CLEAR     66  43  42 SW15      29.70F
SIOUX CITY     SUNNY     72  37  28 SW18      29.74F
SPENCER        CLEAR     63  45  51 S13       29.74S
STORM LAKE *   CLEAR     61  46  59 S14       29.77S
$$

IAZ055>058-069>071-079>083-090>094-220000-
   SOUTHWEST IOWA

CITY           SKY/WX    TMP DP  RH WIND       PRES   REMARKS
ATLANTIC *     SUNNY     64  43  45 S13G20    29.84S
CLARINDA *     SUNNY     66  43  42 S9          N/A
COUNCIL BLFS * SUNNY     68  37  32 S13G20    29.83S
CRESTON *      CLEAR     64  36  34 SW9       29.88F
HARLAN  *      SUNNY     64  43  45 S14       29.86S
LAMONI         CLEAR     67  33  28 SW7       29.88F
RED OAK *      SUNNY     64  43  45 S12       29.85F
SHENANDOAH *   SUNNY     66  41  39 S10       29.87F
$$

IAZ047>049-059>061-072>074-084-220000-
   CENTRAL IOWA

CITY           SKY/WX    TMP DP  RH WIND       PRES   REMARKS
AMES           CLEAR     62  42  47 S9        29.84F
ANKENY *       CLEAR     66  30  26 S12G18    29.86F
BOONE *        CLEAR     63  41  45 S8        29.82F
CHARITON *     CLEAR     66  36  32 SW7G13    29.87F
DES MOINES     PTCLDY    67  33  28 SW12      29.85F
GRINNELL*      CLEAR     63  41  45 S7        29.88F
KNOXVILLE *    CLEAR     66  32  28 S9        29.85F
MARSHALLTOWN   CLEAR     61  41  47 S13       29.84F
NEWTON *       CLEAR     64  39  39 S8        29.85F
PELLA *        CLEAR     67  33  28 S6        29.87F
PERRY *          N/A     63  40  43 S13       29.84F
$$

IAZ004>006-015-016-023>025-035-036-220000-
   NORTH CENTRAL IOWA

CITY           SKY/WX    TMP DP  RH WIND       PRES   REMARKS
ALGONA *       CLEAR     61  48  63 S17G24    29.76S
CLARION *      CLEAR     59  48  67 S17       29.79S
ESTHERVILLE    CLEAR     61  44  53 SW12G21   29.74S
FORT DODGE *   CLEAR     61  45  55 S15G22    29.80F
MASON CITY     PTCLDY    58  47  66 S12       29.80S
FOREST CITY *    N/A     59  46  63 S13       29.77F
WEBSTER CITY * CLEAR     61  45  55 S14       29.79F
IOWA FALLS *     N/A     60  46  61 S13       29.83F
$$

IAZ007>011-017>019-026>030-037>042-050>054-066-220000-
   NORTHEAST IOWA

CITY           SKY/WX    TMP DP  RH WIND       PRES   REMARKS
CEDAR RAPIDS   PTCLDY    62  41  46 S5        29.87F
CHARLES CITY * MOCLDY    55  48  76 S15       29.82S
CLINTON *      PTCLDY    62  44  51 SW3       29.90S
DECORAH *      CLOUDY    55  43  62 S8G17     29.81F
DUBUQUE        CLOUDY    55  40  56 SW5       29.89F
MONTICELLO *   CLOUDY    59  46  63 CALM      29.88F
OELWEIN *      CLOUDY    55  46  71 S10       29.85F
WATERLOO       PTCLDY    60  39  45 S13       29.83F
$$

IAZ064-065-067-068-078-220000-
   EAST CENTRAL IOWA

CITY           SKY/WX    TMP DP  RH WIND       PRES   REMARKS
DAVENPORT      CLEAR     63  45  51 W5        29.90S
IOWA CITY      PTCLDY    65  38  36 W5        29.90F
MUSCATINE *    CLEAR     64  43  45 S6        29.89F
QUAD CITIES    CLEAR     67  44  43 NW3       29.88S
$$

IAZ062-063-075>077-085>089-095>099-220000-
   SOUTHEAST IOWA

CITY           SKY/WX    TMP DP  RH WIND       PRES   REMARKS
BURLINGTON     CLEAR     66  53  63 CALM      29.88F
FAIRFIELD *    CLEAR     66  32  28 NW3       29.88F
KEOKUK *       CLEAR     66  54  63 S3        29.89R
OTTUMWA        CLEAR     68  31  25 W7        29.88F
WASHINGTON *   CLEAR     66  36  32 CALM      29.90S
$$

ABBREVIATIONS USED IN REMARKS
   TC - TEMPERATURES IN CELSIUS
  WCI - WIND CHILL INDEX
   HX - HEAT INDEX
  VSB - VISIBILITY
$$





USA.gov is the U.S. government's official web portal to all federal, state and local government web resources and services.